Time,TemperatureF,DewpointF,PressureIn,WindDirection,WindDirectionDegrees,WindSpeedMPH,WindSpeedGustMPH,Humidity,HourlyPrecipIn,Conditions,Clouds,dailyrainin,SoftwareType,DateUTC
2013-04-29 00:01:00,77.9,68.9,30.05,North,0,1.6,3.5,74,0.00,CLR,OVC,0.00,WeatherDisplay:10.37,2013-04-29 04:01:00,
2013-04-29 00:06:00,77.8,68.8,30.05,NE,49,2.2,2.3,74,0.00,CLR,OVC,0.00,WeatherDisplay:10.37,2013-04-29 04:06:00,
2013-04-29 00:11:00,78.0,69.0,30.05,East,88,0.6,2.3,74,0.00,CLR,OVC,0.00,WeatherDisplay:10.37,2013-04-29 04:11:00,
2013-04-29 00:16:00,78.0,69.0,30.05,ENE,72,0.2,1.1,74,0.00,CLR,OVC,0.00,WeatherDisplay:10.37,2013-04-29 04:16:00,
2013-04-29 00:21:00,77.8,68.8,30.05,NE,37,2.9,4.6,74,0.00,CLR,OVC,0.00,WeatherDisplay:10.37,2013-04-29 04:21:00,
2013-04-29 00:26:00,77.7,68.4,30.04,NE,54,3.5,6.9,73,0.00,CLR,OVC,0.00,WeatherDisplay:10.37,2013-04-29 04:26:00,
2013-04-29 00:31:00,77.2,67.9,30.05,ENE,62,5.0,6.9,73,0.00,CLR,OVC,0.00,WeatherDisplay:10.37,2013-04-29 04:31:00,
2013-04-29 00:36:00,77.4,68.1,30.05,NE,41,1.9,3.5,73,0.00,CLR,OVC,0.00,WeatherDisplay:10.37,2013-04-29 04:36:00,
2013-04-29 00:41:00,77.3,67.6,30.05,ENE,76,2.2,4.6,72,0.00,CLR,OVC,0.00,WeatherDisplay:10.37,2013-04-29 04:41:00,
2013-04-29 00:46:00,77.3,68.0,30.04,NNE,32,1.7,2.3,73,0.00,CLR,OVC,0.00,WeatherDisplay:10.37,2013-04-29 04:46:00,
2013-04-29 00:51:00,77.1,67.8,30.05,ENE,76,1.6,4.6,73,0.00,CLR,OVC,0.00,WeatherDisplay:10.37,2013-04-29 04:51:00,
2013-04-29 00:56:00,77.1,67.8,30.04,East,86,4.9,8.1,73,0.00,CLR,OVC,0.00,WeatherDisplay:10.37,2013-04-29 04:56:00,
2013-04-29 01:01:00,76.7,66.2,30.05,East,83,5.9,9.2,70,0.00,CLR,OVC,0.00,WeatherDisplay:10.37,2013-04-29 05:01:00,
2013-04-29 01:06:00,76.2,64.9,30.04,SE,128,6.8,9.2,68,0.00,CLR,OVC,0.00,WeatherDisplay:10.37,2013-04-29 05:06:00,
2013-04-29 01:11:00,75.9,64.6,30.04,ESE,116,6.4,11.5,68,0.00,CLR,OVC,0.00,WeatherDisplay:10.37,2013-04-29 05:11:00,
2013-04-29 01:16:00,75.7,64.4,30.04,SSE,152,7.4,11.5,68,0.00,CLR,OVC,0.00,WeatherDisplay:10.37,2013-04-29 05:16:00,
2013-04-29 01:21:00,75.4,64.1,30.04,East,83,6.0,8.9,68,0.00,CLR,OVC,0.00,WeatherDisplay:10.37,2013-04-29 05:21:00,
2013-04-29 01:26:00,75.2,63.9,30.03,ESE,113,6.2,9.2,68,0.00,CLR,OVC,0.00,WeatherDisplay:10.37,2013-04-29 05:26:00,
2013-04-29 01:31:00,75.1,64.2,30.03,ESE,107,6.2,9.2,69,0.00,CLR,OVC,0.00,WeatherDisplay:10.37,2013-04-29 05:31:00,
2013-04-29 01:36:00,75.0,64.1,30.03,SSE,148,4.9,5.8,69,0.00,CLR,OVC,0.00,WeatherDisplay:10.37,2013-04-29 05:36:00,
2013-04-29 01:41:00,75.1,64.2,30.03,SE,127,4.0,9.2,69,0.00,CLR,OVC,0.00,WeatherDisplay:10.37,2013-04-29 05:41:00,
2013-04-29 01:46:00,75.0,64.1,30.03,SE,145,3.5,5.8,69,0.00,CLR,OVC,0.00,WeatherDisplay:10.37,2013-04-29 05:46:00,
2013-04-29 01:51:00,75.2,64.3,30.03,SE,124,5.5,8.1,69,0.00,CLR,OVC,0.00,WeatherDisplay:10.37,2013-04-29 05:51:00,
2013-04-29 01:56:00,75.2,64.3,30.03,SE,143,3.5,5.8,69,0.00,CLR,OVC,0.00,WeatherDisplay:10.37,2013-04-29 05:56:00,
2013-04-29 02:01:00,75.0,64.1,30.03,ESE,112,5.6,9.2,69,0.00,CLR,OVC,0.00,WeatherDisplay:10.37,2013-04-29 06:01:00,
2013-04-29 02:06:00,75.3,64.4,30.03,SE,143,6.5,9.4,69,0.00,CLR,OVC,0.00,WeatherDisplay:10.37,2013-04-29 06:06:00,
2013-04-29 02:11:00,75.2,64.7,30.02,SE,134,6.8,9.2,70,0.00,CLR,OVC,0.00,WeatherDisplay:10.37,2013-04-29 06:11:00,
2013-04-29 02:16:00,75.1,64.6,30.02,SE,144,6.7,10.4,70,0.00,CLR,OVC,0.00,WeatherDisplay:10.37,2013-04-29 06:16:00,
2013-04-29 02:21:00,75.0,64.5,30.02,SE,143,4.2,6.9,70,0.00,CLR,OVC,0.00,WeatherDisplay:10.37,2013-04-29 06:21:00,
2013-04-29 02:26:00,74.9,64.5,30.02,SSE,152,3.4,6.0,70,0.00,CLR,OVC,0.00,WeatherDisplay:10.37,2013-04-29 06:26:00,
2013-04-29 02:31:00,74.9,64.5,30.03,SSE,147,5.7,9.2,70,0.00,CLR,OVC,0.00,WeatherDisplay:10.37,2013-04-29 06:31:00,
2013-04-29 02:36:00,74.7,64.3,30.02,SE,143,5.4,8.1,70,0.00,CLR,OVC,0.00,WeatherDisplay:10.37,2013-04-29 06:36:00,
2013-04-29 02:41:00,74.8,64.4,30.02,SSE,160,6.1,8.1,70,0.00,CLR,OVC,0.00,WeatherDisplay:10.37,2013-04-29 06:41:00,
2013-04-29 02:46:00,74.4,64.0,30.02,South,176,6.8,10.4,70,0.00,CLR,OVC,0.00,WeatherDisplay:10.37,2013-04-29 06:46:00,
2013-04-29 02:51:00,74.4,64.0,30.02,South,174,5.6,6.9,70,0.00,CLR,OVC,0.00,WeatherDisplay:10.37,2013-04-29 06:51:00,
2013-04-29 02:56:00,74.3,64.3,30.02,SSE,161,6.0,8.1,71,0.00,CLR,OVC,0.00,WeatherDisplay:10.37,2013-04-29 06:56:00,
2013-04-29 03:01:00,74.2,64.2,30.02,SSE,162,5.2,6.9,71,0.00,CLR,OVC,0.00,WeatherDisplay:10.37,2013-04-29 07:01:00,
2013-04-29 03:06:00,74.2,64.2,30.01,SSE,168,6.6,8.1,71,0.00,CLR,OVC,0.00,WeatherDisplay:10.37,2013-04-29 07:06:00,
2013-04-29 03:11:00,74.3,64.3,30.01,SE,143,5.9,8.2,71,0.00,CLR,OVC,0.00,WeatherDisplay:10.37,2013-04-29 07:11:00,
2013-04-29 03:16:00,74.2,64.2,30.01,SE,145,5.7,6.9,71,0.00,CLR,OVC,0.00,WeatherDisplay:10.37,2013-04-29 07:16:00,
2013-04-29 03:21:00,74.1,64.5,30.01,SSE,158,7.6,9.2,72,0.00,CLR,OVC,0.00,WeatherDisplay:10.37,2013-04-29 07:21:00,
2013-04-29 03:26:00,74.1,64.5,30.01,South,178,7.3,10.4,72,0.00,CLR,OVC,0.00,WeatherDisplay:10.37,2013-04-29 07:26:00,
2013-04-29 03:31:00,73.9,64.3,30.01,SE,143,7.8,9.2,72,0.00,CLR,OVC,0.00,WeatherDisplay:10.37,2013-04-29 07:31:00,
2013-04-29 03:36:00,74.0,64.0,30.01,SE,144,6.5,8.1,71,0.00,CLR,OVC,0.00,WeatherDisplay:10.37,2013-04-29 07:36:00,
2013-04-29 03:41:00,74.0,64.0,30.01,South,169,4.5,8.1,71,0.00,CLR,OVC,0.00,WeatherDisplay:10.37,2013-04-29 07:41:00,
2013-04-29 03:46:00,74.1,64.1,30.01,SSE,147,4.7,5.8,71,0.00,CLR,OVC,0.00,WeatherDisplay:10.37,2013-04-29 07:46:00,
2013-04-29 03:51:00,74.2,64.2,30.01,SSE,168,4.4,6.9,71,0.00,CLR,OVC,0.00,WeatherDisplay:10.37,2013-04-29 07:51:00,
2013-04-29 03:56:00,74.4,65.6,30.01,SSE,161,4.7,6.9,74,0.00,CLR,OVC,0.00,WeatherDisplay:10.37,2013-04-29 07:56:00,
2013-04-29 04:01:00,74.5,66.1,30.01,SSE,150,3.6,4.6,75,0.00,CLR,OVC,0.00,WeatherDisplay:10.37,2013-04-29 08:01:00,
2013-04-29 04:06:00,74.4,66.7,30.01,SSE,165,3.3,4.6,77,0.00,CLR,OVC,0.00,WeatherDisplay:10.37,2013-04-29 08:06:00,
2013-04-29 04:11:00,74.5,67.2,30.01,SSE,155,4.4,6.9,78,0.00,CLR,OVC,0.00,WeatherDisplay:10.37,2013-04-29 08:11:00,
2013-04-29 04:16:00,74.3,67.0,30.01,South,178,6.0,9.2,78,0.00,CLR,OVC,0.00,WeatherDisplay:10.37,2013-04-29 08:16:00,
2013-04-29 04:21:00,74.2,66.9,30.01,SE,144,7.1,8.1,78,0.00,CLR,OVC,0.00,WeatherDisplay:10.37,2013-04-29 08:21:00,
2013-04-29 04:26:00,74.1,66.4,30.02,SSE,157,5.5,6.9,77,0.00,CLR,OVC,0.00,WeatherDisplay:10.37,2013-04-29 08:26:00,
2013-04-29 04:31:00,74.0,66.0,30.01,SSE,155,6.2,8.1,76,0.00,CLR,OVC,0.00,WeatherDisplay:10.37,2013-04-29 08:31:00,
2013-04-29 04:36:00,73.5,65.1,30.02,South,189,7.9,11.5,75,0.00,CLR,OVC,0.00,WeatherDisplay:10.37,2013-04-29 08:36:00,
2013-04-29 04:41:00,73.5,66.9,30.01,South,169,6.2,8.1,80,0.00,CLR,OVC,0.00,WeatherDisplay:10.37,2013-04-29 08:41:00,
2013-04-29 04:46:00,73.3,67.1,30.01,SSE,167,5.0,6.9,81,0.01,RA,OVC,0.01,WeatherDisplay:10.37,2013-04-29 08:46:00,
2013-04-29 04:51:00,73.1,67.3,30.01,South,184,4.5,6.9,82,0.01,RA,OVC,0.01,WeatherDisplay:10.37,2013-04-29 08:51:00,
2013-04-29 04:56:00,72.8,67.3,30.01,South,179,5.0,6.5,83,0.01,CLR,OVC,0.01,WeatherDisplay:10.37,2013-04-29 08:56:00,
2013-04-29 05:01:00,72.4,66.6,30.01,ESE,119,7.3,10.4,82,0.01,CLR,OVC,0.01,WeatherDisplay:10.37,2013-04-29 09:01:00,
2013-04-29 05:06:00,72.1,66.3,30.01,South,174,4.3,5.8,82,0.01,CLR,OVC,0.01,WeatherDisplay:10.37,2013-04-29 09:06:00,
2013-04-29 05:11:00,72.3,66.8,30.01,South,175,4.6,6.9,83,0.01,CLR,OVC,0.01,WeatherDisplay:10.37,2013-04-29 09:11:00,
2013-04-29 05:16:00,72.1,66.6,30.01,SSE,162,7.1,9.2,83,0.01,CLR,OVC,0.01,WeatherDisplay:10.37,2013-04-29 09:16:00,
2013-04-29 05:21:00,72.1,66.3,30.01,SSE,157,6.8,9.2,82,0.01,CLR,OVC,0.01,WeatherDisplay:10.37,2013-04-29 09:21:00,
2013-04-29 05:26:00,72.0,66.2,30.01,ESE,121,3.7,6.9,82,0.01,CLR,OVC,0.01,WeatherDisplay:10.37,2013-04-29 09:26:00,
2013-04-29 05:31:00,72.0,66.2,30.01,SSE,162,4.8,6.9,82,0.02,RA,OVC,0.02,WeatherDisplay:10.37,2013-04-29 09:31:00,
2013-04-29 05:36:00,72.1,66.3,30.01,SSE,160,5.3,6.9,82,0.02,RA,OVC,0.02,WeatherDisplay:10.37,2013-04-29 09:36:00,
2013-04-29 05:41:00,71.9,66.1,30.01,SSE,168,8.5,11.5,82,0.02,CLR,OVC,0.02,WeatherDisplay:10.37,2013-04-29 09:41:00,
2013-04-29 05:46:00,71.5,65.4,30.01,SE,144,7.0,9.2,81,0.01,CLR,OVC,0.02,WeatherDisplay:10.37,2013-04-29 09:46:00,
2013-04-29 05:51:00,71.5,65.4,30.01,South,176,6.9,11.1,81,0.02,RA,OVC,0.03,WeatherDisplay:10.37,2013-04-29 09:51:00,
2013-04-29 05:56:00,71.5,65.4,30.01,SE,138,6.2,9.2,81,0.03,RA,OVC,0.04,WeatherDisplay:10.37,2013-04-29 09:56:00,
2013-04-29 06:01:00,71.4,65.6,30.01,ESE,103,2.9,4.7,82,0.03,RA,OVC,0.04,WeatherDisplay:10.37,2013-04-29 10:01:00,
2013-04-29 06:06:00,71.3,65.5,30.00,ESE,104,3.8,5.8,82,0.03,CLR,OVC,0.04,WeatherDisplay:10.37,2013-04-29 10:06:00,
2013-04-29 06:11:00,71.4,66.0,30.00,SE,143,3.1,4.6,83,0.03,CLR,OVC,0.04,WeatherDisplay:10.37,2013-04-29 10:11:00,
2013-04-29 06:16:00,71.6,66.2,30.00,ESE,109,2.4,4.6,83,0.03,CLR,OVC,0.04,WeatherDisplay:10.37,2013-04-29 10:16:00,
2013-04-29 06:21:00,71.5,66.1,30.00,ESE,120,3.1,4.6,83,0.03,CLR,OVC,0.04,WeatherDisplay:10.37,2013-04-29 10:21:00,
2013-04-29 06:26:00,71.6,66.5,30.00,SE,140,3.3,5.8,84,0.03,CLR,OVC,0.04,WeatherDisplay:10.37,2013-04-29 10:26:00,
2013-04-29 06:31:00,71.5,66.1,30.00,East,97,1.1,2.3,83,0.02,CLR,OVC,0.04,WeatherDisplay:10.37,2013-04-29 10:31:00,
2013-04-29 06:36:00,71.7,66.6,30.00,NE,51,1.4,3.5,84,0.02,CLR,OVC,0.04,WeatherDisplay:10.37,2013-04-29 10:36:00,
2013-04-29 06:41:00,71.7,66.3,30.00,SE,130,2.1,3.5,83,0.02,CLR,OVC,0.04,WeatherDisplay:10.37,2013-04-29 10:41:00,
2013-04-29 06:46:00,71.9,66.8,30.01,SSE,154,1.2,2.3,84,0.02,CLR,OVC,0.04,WeatherDisplay:10.37,2013-04-29 10:46:00,
2013-04-29 06:51:00,71.9,66.8,30.01,SSE,158,1.9,3.9,84,0.01,CLR,OVC,0.04,WeatherDisplay:10.37,2013-04-29 10:51:00,
2013-04-29 06:56:00,71.9,66.5,30.02,South,169,3.9,5.8,83,0.00,CLR,OVC,0.04,WeatherDisplay:10.37,2013-04-29 10:56:00,
2013-04-29 07:01:00,71.9,66.5,30.02,South,182,4.5,6.9,83,0.00,CLR,OVC,0.04,WeatherDisplay:10.37,2013-04-29 11:01:00,
2013-04-29 07:06:00,71.9,66.1,30.02,SSE,155,3.8,4.6,82,0.00,CLR,OVC,0.04,WeatherDisplay:10.37,2013-04-29 11:06:00,
2013-04-29 07:11:00,71.9,66.1,30.03,SSE,147,4.3,5.8,82,0.00,CLR,OVC,0.04,WeatherDisplay:10.37,2013-04-29 11:11:00,
2013-04-29 07:16:00,72.1,66.3,30.03,South,175,3.9,4.6,82,0.00,CLR,OVC,0.04,WeatherDisplay:10.37,2013-04-29 11:16:00,
2013-04-29 07:21:00,72.0,66.2,30.03,SSE,161,2.9,4.6,82,0.00,CLR,OVC,0.04,WeatherDisplay:10.37,2013-04-29 11:21:00,
2013-04-29 07:26:00,72.0,66.2,30.03,South,174,2.3,3.5,82,0.00,CLR,OVC,0.04,WeatherDisplay:10.37,2013-04-29 11:26:00,
2013-04-29 07:31:00,72.0,66.2,30.03,South,172,3.0,5.8,82,0.00,CLR,OVC,0.04,WeatherDisplay:10.37,2013-04-29 11:31:00,
2013-04-29 07:36:00,72.1,66.3,30.03,SSE,151,3.1,3.5,82,0.00,CLR,OVC,0.04,WeatherDisplay:10.37,2013-04-29 11:36:00,
2013-04-29 07:41:00,72.2,66.4,30.03,SE,143,2.4,3.5,82,0.00,CLR,OVC,0.04,WeatherDisplay:10.37,2013-04-29 11:41:00,
2013-04-29 07:46:00,72.3,66.5,30.03,SSE,157,3.2,3.5,82,0.00,CLR,OVC,0.04,WeatherDisplay:10.37,2013-04-29 11:46:00,
2013-04-29 07:51:00,72.4,66.6,30.03,SSE,148,4.0,6.3,82,0.00,CLR,OVC,0.04,WeatherDisplay:10.37,2013-04-29 11:51:00,
2013-04-29 07:56:00,72.6,66.4,30.03,SSE,151,5.6,9.2,81,0.00,CLR,OVC,0.04,WeatherDisplay:10.37,2013-04-29 11:56:00,
2013-04-29 08:01:00,72.7,66.5,30.03,SSE,158,5.2,8.1,81,0.00,CLR,OVC,0.04,WeatherDisplay:10.37,2013-04-29 12:01:00,
2013-04-29 08:06:00,72.8,66.3,30.03,SSE,160,4.7,5.8,80,0.00,CLR,OVC,0.04,WeatherDisplay:10.37,2013-04-29 12:06:00,
2013-04-29 08:11:00,73.0,66.5,30.03,ESE,110,3.9,5.8,80,0.00,CLR,OVC,0.04,WeatherDisplay:10.37,2013-04-29 12:11:00,
2013-04-29 08:16:00,73.1,66.6,30.03,SSE,161,5.2,6.9,80,0.00,CLR,OVC,0.04,WeatherDisplay:10.37,2013-04-29 12:16:00,
2013-04-29 08:21:00,73.1,66.2,30.03,SE,133,5.0,5.8,79,0.00,CLR,OVC,0.04,WeatherDisplay:10.37,2013-04-29 12:21:00,
2013-04-29 08:26:00,73.2,66.3,30.03,SSE,160,5.0,6.9,79,0.00,CLR,OVC,0.04,WeatherDisplay:10.37,2013-04-29 12:26:00,
2013-04-29 08:31:00,73.3,66.4,30.03,ESE,121,4.3,6.7,79,0.00,CLR,OVC,0.04,WeatherDisplay:10.37,2013-04-29 12:31:00,
2013-04-29 08:36:00,73.5,66.6,30.03,SE,143,5.8,9.2,79,0.00,CLR,OVC,0.04,WeatherDisplay:10.37,2013-04-29 12:36:00,
2013-04-29 08:41:00,73.8,66.5,30.03,SSE,165,5.2,6.9,78,0.00,CLR,OVC,0.04,WeatherDisplay:10.37,2013-04-29 12:41:00,
2013-04-29 08:46:00,74.2,66.9,30.03,SSE,167,4.9,6.9,78,0.00,CLR,OVC,0.04,WeatherDisplay:10.37,2013-04-29 12:46:00,
2013-04-29 08:51:00,74.4,66.7,30.03,SE,144,9.0,10.4,77,0.00,CLR,OVC,0.04,WeatherDisplay:10.37,2013-04-29 12:51:00,
2013-04-29 08:56:00,74.8,66.7,30.03,SE,141,8.4,10.4,76,0.00,CLR,OVC,0.04,WeatherDisplay:10.37,2013-04-29 12:56:00,
2013-04-29 09:01:00,75.1,67.0,30.03,SE,133,7.9,10.4,76,0.00,CLR,OVC,0.04,WeatherDisplay:10.37,2013-04-29 13:01:00,
2013-04-29 09:06:00,75.5,66.6,30.03,SSE,167,8.3,9.4,74,0.00,CLR,OVC,0.04,WeatherDisplay:10.37,2013-04-29 13:06:00,
2013-04-29 09:11:00,75.4,66.5,30.03,ESE,121,7.2,10.4,74,0.00,CLR,OVC,0.04,WeatherDisplay:10.37,2013-04-29 13:11:00,
2013-04-29 09:16:00,75.8,66.9,30.03,SSE,165,9.4,13.8,74,0.00,CLR,OVC,0.04,WeatherDisplay:10.37,2013-04-29 13:16:00,
2013-04-29 09:21:00,76.1,67.2,30.03,South,175,5.9,9.2,74,0.00,CLR,OVC,0.04,WeatherDisplay:10.37,2013-04-29 13:21:00,
2013-04-29 09:26:00,76.4,67.1,30.03,SE,145,8.2,13.8,73,0.00,CLR,OVC,0.04,WeatherDisplay:10.37,2013-04-29 13:26:00,
2013-04-29 09:31:00,76.9,67.6,30.03,South,175,7.5,9.2,73,0.00,CLR,OVC,0.04,WeatherDisplay:10.37,2013-04-29 13:31:00,
2013-04-29 09:36:00,76.8,66.7,30.03,SSE,154,8.9,11.5,71,0.00,CLR,OVC,0.04,WeatherDisplay:10.37,2013-04-29 13:36:00,
2013-04-29 09:41:00,77.3,66.7,30.03,ESE,113,8.5,13.8,70,0.00,CLR,OVC,0.04,WeatherDisplay:10.37,2013-04-29 13:41:00,
2013-04-29 09:46:00,77.8,67.6,30.03,South,174,8.8,11.9,71,0.00,CLR,OVC,0.04,WeatherDisplay:10.37,2013-04-29 13:46:00,
2013-04-29 09:51:00,78.2,67.6,30.04,South,182,8.7,12.7,70,0.00,CLR,OVC,0.04,WeatherDisplay:10.37,2013-04-29 13:51:00,
2013-04-29 09:56:00,78.4,67.4,30.04,SSE,168,9.4,11.5,69,0.00,CLR,OVC,0.04,WeatherDisplay:10.37,2013-04-29 13:56:00,
2013-04-29 10:01:00,78.7,67.7,30.04,South,178,8.6,12.7,69,0.00,CLR,OVC,0.04,WeatherDisplay:10.37,2013-04-29 14:01:00,
2013-04-29 10:06:00,78.4,67.0,30.04,SSE,167,8.8,12.7,68,0.00,CLR,OVC,0.04,WeatherDisplay:10.37,2013-04-29 14:06:00,
2013-04-29 10:11:00,78.4,67.4,30.04,SSW,208,9.2,12.7,69,0.00,CLR,OVC,0.04,WeatherDisplay:10.37,2013-04-29 14:11:00,
2013-04-29 10:16:00,79.0,68.0,30.03,SSE,161,7.6,9.2,69,0.00,CLR,OVC,0.04,WeatherDisplay:10.37,2013-04-29 14:16:00,
2013-04-29 10:21:00,79.4,67.0,30.04,SSE,150,8.8,12.7,66,0.00,CLR,OVC,0.04,WeatherDisplay:10.37,2013-04-29 14:21:00,
2013-04-29 10:26:00,79.7,67.8,30.04,SE,134,9.0,12.7,67,0.00,CLR,OVC,0.04,WeatherDisplay:10.37,2013-04-29 14:26:00,
2013-04-29 10:31:00,79.8,67.4,30.03,SSE,167,13.7,18.4,66,0.00,CLR,OVC,0.04,WeatherDisplay:10.37,2013-04-29 14:31:00,
2013-04-29 10:36:00,79.8,67.9,30.03,SSE,164,11.5,15.0,67,0.00,CLR,OVC,0.04,WeatherDisplay:10.37,2013-04-29 14:36:00,
2013-04-29 10:41:00,79.8,67.0,30.03,South,174,11.1,16.1,65,0.00,CLR,OVC,0.04,WeatherDisplay:10.37,2013-04-29 14:41:00,
2013-04-29 10:46:00,80.1,67.3,30.03,SSE,150,11.1,16.1,65,0.00,CLR,OVC,0.04,WeatherDisplay:10.37,2013-04-29 14:46:00,
2013-04-29 10:51:00,80.5,68.5,30.03,South,169,8.7,10.4,67,0.00,CLR,OVC,0.04,WeatherDisplay:10.37,2013-04-29 14:51:00,
2013-04-29 10:56:00,80.3,67.9,30.03,South,179,11.0,15.0,66,0.00,CLR,OVC,0.04,WeatherDisplay:10.37,2013-04-29 14:56:00,
2013-04-29 11:01:00,81.0,68.1,30.03,SSW,209,11.2,13.8,65,0.00,CLR,OVC,0.04,WeatherDisplay:10.37,2013-04-29 15:01:00,
2013-04-29 11:06:00,81.5,68.6,30.03,SE,133,8.3,10.4,65,0.00,CLR,OVC,0.04,WeatherDisplay:10.37,2013-04-29 15:06:00,
2013-04-29 11:11:00,82.2,68.8,30.03,SSE,152,11.7,15.0,64,0.00,CLR,OVC,0.04,WeatherDisplay:10.37,2013-04-29 15:11:00,
2013-04-29 11:16:00,82.4,68.1,30.03,South,188,9.5,13.8,62,0.00,CLR,OVC,0.04,WeatherDisplay:10.37,2013-04-29 15:16:00,
2013-04-29 11:21:00,82.4,68.1,30.03,South,176,11.5,16.1,62,0.00,CLR,OVC,0.04,WeatherDisplay:10.37,2013-04-29 15:21:00,
2013-04-29 11:26:00,82.1,67.3,30.03,South,174,10.0,13.8,61,0.00,CLR,OVC,0.04,WeatherDisplay:10.37,2013-04-29 15:26:00,
2013-04-29 11:31:00,82.5,68.6,30.03,SSE,167,8.6,16.1,63,0.00,CLR,OVC,0.04,WeatherDisplay:10.37,2013-04-29 15:31:00,
2013-04-29 11:36:00,82.6,68.3,30.03,South,169,10.8,13.8,62,0.00,CLR,OVC,0.04,WeatherDisplay:10.37,2013-04-29 15:36:00,
2013-04-29 11:41:00,83.1,68.3,30.04,SSE,167,14.2,17.3,61,0.00,CLR,OVC,0.04,WeatherDisplay:10.37,2013-04-29 15:41:00,
2013-04-29 11:46:00,83.2,68.8,30.04,South,171,10.6,13.8,62,0.00,CLR,OVC,0.04,WeatherDisplay:10.37,2013-04-29 15:46:00,
2013-04-29 11:51:00,83.4,68.5,30.04,SSW,195,8.6,11.5,61,0.00,CLR,OVC,0.04,WeatherDisplay:10.37,2013-04-29 15:51:00,
2013-04-29 11:56:00,83.4,69.5,30.04,SSE,151,12.1,15.0,63,0.00,CLR,OVC,0.04,WeatherDisplay:10.37,2013-04-29 15:56:00,
2013-04-29 12:01:00,83.4,68.5,30.03,South,182,9.6,15.0,61,0.00,CLR,OVC,0.04,WeatherDisplay:10.37,2013-04-29 16:01:00,
2013-04-29 12:06:00,83.4,68.1,30.04,South,176,7.9,10.4,60,0.00,CLR,OVC,0.04,WeatherDisplay:10.37,2013-04-29 16:06:00,
2013-04-29 12:11:00,83.0,67.2,30.04,SSW,210,10.2,16.1,59,0.00,CLR,OVC,0.04,WeatherDisplay:10.37,2013-04-29 16:11:00,
2013-04-29 12:16:00,82.9,68.1,30.03,SSE,157,10.2,12.7,61,0.00,CLR,OVC,0.04,WeatherDisplay:10.37,2013-04-29 16:16:00,
2013-04-29 12:21:00,83.5,67.7,30.03,South,178,9.5,12.7,59,0.00,CLR,OVC,0.04,WeatherDisplay:10.37,2013-04-29 16:21:00,
2013-04-29 12:26:00,83.5,68.2,30.03,SSW,192,9.3,11.5,60,0.00,CLR,OVC,0.04,WeatherDisplay:10.37,2013-04-29 16:26:00,
2013-04-29 12:31:00,83.5,68.6,30.03,SSW,202,8.2,11.5,61,0.00,CLR,OVC,0.04,WeatherDisplay:10.37,2013-04-29 16:31:00,
2013-04-29 12:36:00,83.2,67.4,30.03,SSE,161,8.8,12.7,59,0.00,CLR,OVC,0.04,WeatherDisplay:10.37,2013-04-29 16:36:00,
2013-04-29 12:41:00,83.3,68.4,30.03,SSW,192,9.4,11.5,61,0.00,CLR,OVC,0.04,WeatherDisplay:10.37,2013-04-29 16:41:00,
2013-04-29 12:46:00,83.9,68.5,30.03,South,169,7.6,10.4,60,0.00,CLR,OVC,0.04,WeatherDisplay:10.37,2013-04-29 16:46:00,
2013-04-29 12:51:00,84.3,67.4,30.03,South,191,6.5,10.4,57,0.00,CLR,OVC,0.04,WeatherDisplay:10.37,2013-04-29 16:51:00,
2013-04-29 12:56:00,84.3,66.4,30.03,SSW,213,8.0,11.5,55,0.00,CLR,OVC,0.04,WeatherDisplay:10.37,2013-04-29 16:56:00,
2013-04-29 13:01:00,83.5,66.2,30.03,South,191,6.9,10.4,56,0.00,CLR,OVC,0.04,WeatherDisplay:10.37,2013-04-29 17:01:00,
2013-04-29 13:06:00,83.5,66.2,30.02,SSW,209,6.1,9.2,56,0.00,CLR,OVC,0.04,WeatherDisplay:10.37,2013-04-29 17:06:00,
2013-04-29 13:11:00,83.8,66.4,30.03,South,184,7.1,11.5,56,0.00,CLR,OVC,0.04,WeatherDisplay:10.37,2013-04-29 17:11:00,
2013-04-29 13:16:00,83.9,66.5,30.02,SSW,193,8.8,11.5,56,0.00,CLR,OVC,0.04,WeatherDisplay:10.37,2013-04-29 17:16:00,
2013-04-29 13:21:00,84.2,67.3,30.02,SSW,200,5.8,11.6,57,0.00,CLR,OVC,0.04,WeatherDisplay:10.37,2013-04-29 17:21:00,
2013-04-29 13:26:00,84.4,67.0,30.02,SW,219,8.5,11.5,56,0.00,CLR,OVC,0.04,WeatherDisplay:10.37,2013-04-29 17:26:00,
2013-04-29 13:31:00,83.5,68.2,30.02,South,184,9.2,12.7,60,0.00,CLR,OVC,0.04,WeatherDisplay:10.37,2013-04-29 17:31:00,
2013-04-29 13:36:00,83.3,68.0,30.02,WSW,243,6.2,10.9,60,0.00,CLR,OVC,0.04,WeatherDisplay:10.37,2013-04-29 17:36:00,
2013-04-29 13:41:00,82.7,68.4,30.02,WSW,240,7.9,11.5,62,0.00,CLR,OVC,0.04,WeatherDisplay:10.37,2013-04-29 17:41:00,
2013-04-29 13:46:00,82.3,68.9,30.02,SW,224,9.0,11.5,64,0.00,CLR,OVC,0.04,WeatherDisplay:10.37,2013-04-29 17:46:00,
2013-04-29 13:51:00,82.2,68.3,30.01,SW,219,6.4,9.2,63,0.00,CLR,OVC,0.04,WeatherDisplay:10.37,2013-04-29 17:51:00,
2013-04-29 13:56:00,82.4,68.5,30.01,South,186,7.1,12.7,63,0.00,CLR,OVC,0.04,WeatherDisplay:10.37,2013-04-29 17:56:00,
2013-04-29 14:01:00,82.5,68.6,30.01,SW,224,6.5,9.2,63,0.00,CLR,OVC,0.04,WeatherDisplay:10.37,2013-04-29 18:01:00,
2013-04-29 14:06:00,82.3,68.4,30.01,SW,216,9.6,15.0,63,0.00,CLR,OVC,0.04,WeatherDisplay:10.37,2013-04-29 18:06:00,
2013-04-29 14:11:00,82.1,68.3,30.01,SW,234,8.8,12.7,63,0.00,CLR,OVC,0.04,WeatherDisplay:10.37,2013-04-29 18:11:00,
2013-04-29 14:16:00,82.2,68.3,30.00,SSW,203,7.9,11.5,63,0.00,CLR,OVC,0.04,WeatherDisplay:10.37,2013-04-29 18:16:00,
2013-04-29 14:21:00,82.4,69.0,30.00,SSW,200,8.2,11.5,64,0.00,CLR,OVC,0.04,WeatherDisplay:10.37,2013-04-29 18:21:00,
2013-04-29 14:26:00,82.6,67.8,30.00,WSW,243,7.0,10.4,61,0.00,CLR,OVC,0.04,WeatherDisplay:10.37,2013-04-29 18:26:00,
2013-04-29 14:31:00,82.6,68.3,30.00,SSW,200,7.3,9.2,62,0.00,CLR,OVC,0.04,WeatherDisplay:10.37,2013-04-29 18:31:00,
2013-04-29 14:36:00,82.6,67.8,30.00,WSW,248,5.8,10.4,61,0.00,CLR,OVC,0.04,WeatherDisplay:10.37,2013-04-29 18:36:00,
2013-04-29 14:41:00,82.9,68.5,30.00,WSW,243,7.6,12.5,62,0.00,CLR,OVC,0.04,WeatherDisplay:10.37,2013-04-29 18:41:00,
2013-04-29 14:46:00,82.8,68.4,30.00,West,264,5.7,10.4,62,0.00,CLR,OVC,0.04,WeatherDisplay:10.37,2013-04-29 18:46:00,
2013-04-29 14:51:00,82.5,68.6,29.99,WSW,237,6.6,11.5,63,0.00,CLR,OVC,0.04,WeatherDisplay:10.37,2013-04-29 18:51:00,
2013-04-29 14:56:00,82.4,69.0,29.99,SSW,212,9.2,11.5,64,0.00,CLR,OVC,0.04,WeatherDisplay:10.37,2013-04-29 18:56:00,
2013-04-29 15:01:00,82.0,68.6,29.99,SSE,168,8.8,13.8,64,0.00,CLR,OVC,0.04,WeatherDisplay:10.37,2013-04-29 19:01:00,
2013-04-29 15:06:00,82.2,68.8,29.98,WSW,237,4.4,6.9,64,0.00,CLR,OVC,0.04,WeatherDisplay:10.37,2013-04-29 19:06:00,
2013-04-29 15:11:00,82.5,68.6,29.97,SSW,202,5.4,9.2,63,0.00,CLR,OVC,0.04,WeatherDisplay:10.37,2013-04-29 19:11:00,
2013-04-29 15:16:00,82.7,68.4,29.97,South,189,6.1,10.4,62,0.00,CLR,OVC,0.04,WeatherDisplay:10.37,2013-04-29 19:16:00,
2013-04-29 15:21:00,82.7,68.4,29.97,SSW,212,5.4,8.1,62,0.00,CLR,OVC,0.04,WeatherDisplay:10.37,2013-04-29 19:21:00,
2013-04-29 15:26:00,83.0,69.6,29.97,South,188,10.4,15.0,64,0.00,CLR,OVC,0.04,WeatherDisplay:10.37,2013-04-29 19:26:00,
2013-04-29 15:31:00,82.9,69.0,29.97,SSW,192,9.0,13.8,63,0.00,CLR,OVC,0.04,WeatherDisplay:10.37,2013-04-29 19:31:00,
2013-04-29 15:36:00,82.4,68.5,29.97,SSW,198,10.1,12.7,63,0.00,CLR,OVC,0.04,WeatherDisplay:10.37,2013-04-29 19:36:00,
2013-04-29 15:41:00,82.4,69.4,29.97,South,169,10.3,13.8,65,0.00,CLR,OVC,0.04,WeatherDisplay:10.37,2013-04-29 19:41:00,
2013-04-29 15:46:00,82.5,69.1,29.96,SSW,212,8.2,15.4,64,0.00,CLR,OVC,0.04,WeatherDisplay:10.37,2013-04-29 19:46:00,
2013-04-29 15:51:00,82.2,68.8,29.96,South,186,11.8,15.0,64,0.00,CLR,OVC,0.04,WeatherDisplay:10.37,2013-04-29 19:51:00,
2013-04-29 15:56:00,82.0,69.1,29.96,South,184,9.4,15.0,65,0.00,CLR,OVC,0.04,WeatherDisplay:10.37,2013-04-29 19:56:00,
2013-04-29 16:01:00,81.6,68.7,29.96,SSW,200,9.7,13.8,65,0.00,CLR,OVC,0.04,WeatherDisplay:10.37,2013-04-29 20:01:00,
2013-04-29 16:06:00,81.4,68.9,29.95,WSW,257,6.8,10.4,66,0.00,CLR,OVC,0.04,WeatherDisplay:10.37,2013-04-29 20:06:00,
2013-04-29 16:11:00,81.3,69.7,29.95,SSW,196,7.4,16.1,68,0.00,CLR,OVC,0.04,WeatherDisplay:10.37,2013-04-29 20:11:00,
2013-04-29 16:16:00,81.4,69.8,29.95,SW,224,6.9,9.2,68,0.00,CLR,OVC,0.04,WeatherDisplay:10.37,2013-04-29 20:16:00,
2013-04-29 16:21:00,81.4,69.4,29.95,SSW,196,9.0,16.1,67,0.00,CLR,OVC,0.04,WeatherDisplay:10.37,2013-04-29 20:21:00,
2013-04-29 16:26:00,81.4,69.4,29.94,South,179,11.0,16.1,67,0.00,CLR,OVC,0.04,WeatherDisplay:10.37,2013-04-29 20:26:00,
2013-04-29 16:31:00,81.1,69.1,29.94,SSW,199,8.0,12.7,67,0.00,CLR,OVC,0.04,WeatherDisplay:10.37,2013-04-29 20:31:00,
2013-04-29 16:36:00,81.3,69.3,29.94,South,176,8.0,12.7,67,0.00,CLR,OVC,0.04,WeatherDisplay:10.37,2013-04-29 20:36:00,
2013-04-29 16:41:00,81.6,69.1,29.94,WSW,240,5.2,8.1,66,0.00,CLR,OVC,0.04,WeatherDisplay:10.37,2013-04-29 20:41:00,
2013-04-29 16:46:00,81.2,68.8,29.94,WSW,237,9.3,10.5,66,0.00,CLR,OVC,0.04,WeatherDisplay:10.37,2013-04-29 20:46:00,
2013-04-29 16:51:00,81.3,69.7,29.94,SSW,193,6.0,6.9,68,0.00,CLR,OVC,0.04,WeatherDisplay:10.37,2013-04-29 20:51:00,
2013-04-29 16:56:00,81.2,69.6,29.93,South,181,6.2,13.8,68,0.00,CLR,OVC,0.04,WeatherDisplay:10.37,2013-04-29 20:56:00,
2013-04-29 17:01:00,81.5,69.5,29.93,SSE,155,9.2,13.8,67,0.00,CLR,OVC,0.04,WeatherDisplay:10.37,2013-04-29 21:01:00,
2013-04-29 17:06:00,81.9,69.0,29.93,SW,223,9.1,13.8,65,0.00,CLR,OVC,0.04,WeatherDisplay:10.37,2013-04-29 21:06:00,
2013-04-29 17:11:00,81.8,69.3,29.93,SW,230,6.1,10.4,66,0.00,CLR,OVC,0.04,WeatherDisplay:10.37,2013-04-29 21:11:00,
2013-04-29 17:16:00,82.4,69.9,29.93,South,175,10.0,13.9,66,0.00,CLR,OVC,0.04,WeatherDisplay:10.37,2013-04-29 21:16:00,
2013-04-29 17:21:00,83.3,69.4,29.93,SW,236,6.9,13.8,63,0.00,CLR,OVC,0.04,WeatherDisplay:10.37,2013-04-29 21:21:00,
2013-04-29 17:26:00,83.4,69.0,29.93,SW,215,7.9,11.5,62,0.00,CLR,OVC,0.04,WeatherDisplay:10.37,2013-04-29 21:26:00,
2013-04-29 17:31:00,82.7,68.8,29.93,South,189,8.7,15.0,63,0.00,CLR,OVC,0.04,WeatherDisplay:10.37,2013-04-29 21:31:00,
2013-04-29 17:36:00,82.5,69.1,29.93,South,176,9.0,12.7,64,0.00,CLR,OVC,0.04,WeatherDisplay:10.37,2013-04-29 21:36:00,
2013-04-29 17:41:00,82.5,69.1,29.93,South,178,6.8,9.2,64,0.00,CLR,OVC,0.04,WeatherDisplay:10.37,2013-04-29 21:41:00,
2013-04-29 17:46:00,81.8,68.9,29.93,SSW,203,6.6,9.2,65,0.00,CLR,OVC,0.04,WeatherDisplay:10.37,2013-04-29 21:46:00,
2013-04-29 17:51:00,81.5,69.0,29.93,SSW,205,7.4,9.2,66,0.00,CLR,OVC,0.04,WeatherDisplay:10.37,2013-04-29 21:51:00,
2013-04-29 17:56:00,81.3,69.3,29.94,SSW,192,6.0,9.2,67,0.00,CLR,OVC,0.04,WeatherDisplay:10.37,2013-04-29 21:56:00,
2013-04-29 18:01:00,81.3,69.3,29.94,SW,219,4.8,6.9,67,0.00,CLR,OVC,0.04,WeatherDisplay:10.37,2013-04-29 22:01:00,
2013-04-29 18:06:00,80.9,69.3,29.94,WSW,240,6.9,8.1,68,0.00,CLR,OVC,0.04,WeatherDisplay:10.37,2013-04-29 22:06:00,
2013-04-29 18:11:00,81.1,70.0,29.94,WSW,258,4.3,6.9,69,0.00,CLR,OVC,0.04,WeatherDisplay:10.37,2013-04-29 22:11:00,
2013-04-29 18:16:00,81.2,70.1,29.94,West,260,3.1,6.9,69,0.00,CLR,OVC,0.04,WeatherDisplay:10.37,2013-04-29 22:16:00,
2013-04-29 18:21:00,80.5,69.8,29.95,SW,216,5.9,8.1,70,0.00,CLR,OVC,0.04,WeatherDisplay:10.37,2013-04-29 22:21:00,
2013-04-29 18:26:00,80.4,70.1,29.95,WSW,244,3.4,6.9,71,0.00,CLR,OVC,0.04,WeatherDisplay:10.37,2013-04-29 22:26:00,
2013-04-29 18:31:00,80.7,70.8,29.95,SSW,209,3.7,5.8,72,0.00,CLR,OVC,0.04,WeatherDisplay:10.37,2013-04-29 22:31:00,
2013-04-29 18:36:00,81.0,70.7,29.95,WSW,244,3.4,6.9,71,0.00,CLR,OVC,0.04,WeatherDisplay:10.37,2013-04-29 22:36:00,
2013-04-29 18:41:00,80.5,70.6,29.95,South,185,5.0,9.2,72,0.00,CLR,OVC,0.04,WeatherDisplay:10.37,2013-04-29 22:41:00,
2013-04-29 18:46:00,80.8,70.5,29.95,WNW,288,3.2,5.8,71,0.00,CLR,OVC,0.04,WeatherDisplay:10.37,2013-04-29 22:46:00,
2013-04-29 18:51:00,80.5,70.6,29.96,WNW,298,3.7,6.9,72,0.00,CLR,OVC,0.04,WeatherDisplay:10.37,2013-04-29 22:51:00,
2013-04-29 18:56:00,80.4,70.5,29.96,WSW,247,4.3,8.1,72,0.00,CLR,OVC,0.04,WeatherDisplay:10.37,2013-04-29 22:56:00,
2013-04-29 19:01:00,80.2,70.8,29.96,SSW,208,4.2,5.8,73,0.00,CLR,OVC,0.04,WeatherDisplay:10.37,2013-04-29 23:01:00,
2013-04-29 19:06:00,80.0,71.0,29.97,SSW,210,6.1,8.1,74,0.00,CLR,OVC,0.04,WeatherDisplay:10.37,2013-04-29 23:06:00,
2013-04-29 19:11:00,79.5,70.9,29.97,WSW,239,5.1,6.9,75,0.00,CLR,OVC,0.04,WeatherDisplay:10.37,2013-04-29 23:11:00,
2013-04-29 19:16:00,79.2,71.0,29.98,SW,233,5.8,7.1,76,0.00,CLR,OVC,0.04,WeatherDisplay:10.37,2013-04-29 23:16:00,
2013-04-29 19:21:00,78.9,71.1,29.98,SW,223,6.1,9.2,77,0.00,CLR,OVC,0.04,WeatherDisplay:10.37,2013-04-29 23:21:00,
2013-04-29 19:26:00,78.9,71.5,29.99,WSW,258,3.8,5.8,78,0.00,CLR,OVC,0.04,WeatherDisplay:10.37,2013-04-29 23:26:00,
2013-04-29 19:31:00,78.9,71.5,29.98,WSW,248,7.2,9.2,78,0.00,CLR,OVC,0.04,WeatherDisplay:10.37,2013-04-29 23:31:00,
2013-04-29 19:36:00,78.9,71.5,29.98,SW,232,5.1,8.1,78,0.00,CLR,OVC,0.04,WeatherDisplay:10.37,2013-04-29 23:36:00,
2013-04-29 19:41:00,78.9,71.5,29.98,WSW,257,3.1,4.7,78,0.00,CLR,OVC,0.04,WeatherDisplay:10.37,2013-04-29 23:41:00,
2013-04-29 19:46:00,78.4,71.0,29.98,WSW,244,4.7,9.2,78,0.00,CLR,OVC,0.04,WeatherDisplay:10.37,2013-04-29 23:46:00,
2013-04-29 19:51:00,78.5,71.4,29.98,West,275,4.5,5.8,79,0.00,CLR,OVC,0.04,WeatherDisplay:10.37,2013-04-29 23:51:00,
2013-04-29 19:56:00,78.1,71.1,29.98,WSW,256,6.8,8.1,79,0.00,CLR,OVC,0.04,WeatherDisplay:10.37,2013-04-29 23:56:00,
2013-04-29 20:01:00,78.1,67.5,29.97,SW,217,1.5,4.6,70,0.00,CLR,OVC,0.04,WeatherDisplay:10.37,2013-04-30 00:01:00,
2013-04-29 20:06:00,78.0,67.4,29.97,SW,229,2.5,5.4,70,0.00,CLR,OVC,0.04,WeatherDisplay:10.37,2013-04-30 00:06:00,
2013-04-29 20:11:00,78.0,71.3,29.97,SSW,193,2.3,4.6,80,0.00,CLR,OVC,0.04,WeatherDisplay:10.37,2013-04-30 00:11:00,
2013-04-29 20:16:00,77.9,71.2,29.97,SW,224,4.8,5.8,80,0.00,CLR,OVC,0.04,WeatherDisplay:10.37,2013-04-30 00:16:00,
2013-04-29 20:21:00,77.8,71.1,29.97,SW,232,2.1,4.6,80,0.00,CLR,OVC,0.04,WeatherDisplay:10.37,2013-04-30 00:21:00,
2013-04-29 20:26:00,77.7,71.0,29.97,South,181,3.4,4.6,80,0.00,CLR,OVC,0.04,WeatherDisplay:10.37,2013-04-30 00:26:00,
2013-04-29 20:31:00,77.9,71.2,29.97,SW,215,2.8,4.6,80,0.00,CLR,OVC,0.04,WeatherDisplay:10.37,2013-04-30 00:31:00,
2013-04-29 20:36:00,77.9,71.2,29.97,SW,227,4.9,6.9,80,0.00,CLR,OVC,0.04,WeatherDisplay:10.37,2013-04-30 00:36:00,
2013-04-29 20:41:00,77.8,71.1,29.97,SSW,199,1.9,4.6,80,0.00,CLR,OVC,0.04,WeatherDisplay:10.37,2013-04-30 00:41:00,
2013-04-29 20:46:00,77.8,71.1,29.97,WSW,237,4.8,6.9,80,0.00,CLR,OVC,0.04,WeatherDisplay:10.37,2013-04-30 00:46:00,
2013-04-29 20:51:00,77.8,71.5,29.97,South,189,3.2,5.8,81,0.00,CLR,OVC,0.04,WeatherDisplay:10.37,2013-04-30 00:51:00,
2013-04-29 20:56:00,77.8,71.5,29.97,South,189,1.5,2.3,81,0.00,CLR,OVC,0.04,WeatherDisplay:10.37,2013-04-30 00:56:00,
2013-04-29 21:01:00,77.8,71.5,29.97,SSW,200,2.2,4.4,81,0.00,CLR,OVC,0.04,WeatherDisplay:10.37,2013-04-30 01:01:00,
2013-04-29 21:06:00,77.8,71.5,29.97,West,271,3.2,6.9,81,0.00,CLR,OVC,0.04,WeatherDisplay:10.37,2013-04-30 01:06:00,
2013-04-29 21:11:00,77.8,71.5,29.97,South,174,1.4,3.5,81,0.00,CLR,OVC,0.04,WeatherDisplay:10.37,2013-04-30 01:11:00,
2013-04-29 21:16:00,77.8,71.5,29.97,WSW,237,1.9,3.5,81,0.00,CLR,OVC,0.04,WeatherDisplay:10.37,2013-04-30 01:16:00,
2013-04-29 21:21:00,77.7,71.4,29.96,SSW,210,2.0,3.0,81,0.00,CLR,OVC,0.04,WeatherDisplay:10.37,2013-04-30 01:21:00,
2013-04-29 21:26:00,77.5,71.6,29.97,SW,236,1.3,2.3,82,0.00,CLR,OVC,0.04,WeatherDisplay:10.37,2013-04-30 01:26:00,
2013-04-29 21:31:00,77.3,71.0,29.96,South,188,0.0,0.0,81,0.00,CLR,OVC,0.04,WeatherDisplay:10.37,2013-04-30 01:31:00,
2013-04-29 21:36:00,77.4,71.1,29.97,SSW,212,1.8,2.3,81,0.00,CLR,OVC,0.04,WeatherDisplay:10.37,2013-04-30 01:36:00,
2013-04-29 21:41:00,77.5,71.2,29.97,SW,236,0.7,1.2,81,0.00,CLR,OVC,0.04,WeatherDisplay:10.37,2013-04-30 01:41:00,
2013-04-29 21:46:00,77.3,71.0,29.97,WSW,237,0.0,0.0,81,0.00,CLR,OVC,0.04,WeatherDisplay:10.37,2013-04-30 01:46:00,
2013-04-29 21:51:00,77.2,70.9,29.96,SE,126,0.3,0.0,81,0.00,CLR,OVC,0.04,WeatherDisplay:10.37,2013-04-30 01:51:00,
2013-04-29 21:56:00,77.3,71.0,29.97,SE,126,0.0,0.0,81,0.00,CLR,OVC,0.04,WeatherDisplay:10.37,2013-04-30 01:56:00,
2013-04-29 22:01:00,77.2,70.9,29.98,SE,126,0.0,0.0,81,0.00,CLR,OVC,0.04,WeatherDisplay:10.37,2013-04-30 02:01:00,
2013-04-29 22:06:00,77.1,71.2,29.97,SE,126,0.0,0.0,82,0.00,CLR,OVC,0.04,WeatherDisplay:10.37,2013-04-30 02:06:00,
2013-04-29 22:11:00,77.0,71.1,29.98,SE,126,0.0,0.0,82,0.00,CLR,OVC,0.04,WeatherDisplay:10.37,2013-04-30 02:11:00,
2013-04-29 22:16:00,77.0,71.1,29.98,SE,126,0.0,0.0,82,0.00,CLR,OVC,0.04,WeatherDisplay:10.37,2013-04-30 02:16:00,
2013-04-29 22:21:00,77.0,71.1,29.99,SE,126,0.0,0.0,82,0.00,CLR,OVC,0.04,WeatherDisplay:10.37,2013-04-30 02:21:00,
2013-04-29 22:26:00,76.9,71.0,29.98,SE,126,0.0,0.0,82,0.00,CLR,OVC,0.04,WeatherDisplay:10.37,2013-04-30 02:26:00,
2013-04-29 22:31:00,76.9,71.3,29.99,SE,126,0.0,0.0,83,0.00,CLR,OVC,0.04,WeatherDisplay:10.37,2013-04-30 02:31:00,
2013-04-29 22:36:00,76.9,71.0,29.99,SE,126,0.0,0.0,82,0.00,CLR,OVC,0.04,WeatherDisplay:10.37,2013-04-30 02:36:00,
2013-04-29 22:41:00,76.8,70.9,29.99,SE,126,0.0,0.0,82,0.00,CLR,OVC,0.04,WeatherDisplay:10.37,2013-04-30 02:41:00,
2013-04-29 22:46:00,76.7,70.8,30.00,SE,126,0.0,0.0,82,0.00,CLR,OVC,0.04,WeatherDisplay:10.37,2013-04-30 02:46:00,
2013-04-29 22:51:00,76.7,70.8,29.99,SE,126,0.0,0.0,82,0.00,CLR,OVC,0.04,WeatherDisplay:10.37,2013-04-30 02:51:00,
2013-04-29 22:56:00,76.6,70.7,29.99,SE,126,0.0,0.0,82,0.00,CLR,OVC,0.04,WeatherDisplay:10.37,2013-04-30 02:56:00,
2013-04-29 23:01:00,76.7,71.1,29.99,SE,126,0.0,0.0,83,0.00,CLR,OVC,0.04,WeatherDisplay:10.37,2013-04-30 03:01:00,
2013-04-29 23:06:00,76.6,71.0,29.99,SE,126,0.0,0.0,83,0.00,CLR,OVC,0.04,WeatherDisplay:10.37,2013-04-30 03:06:00,
2013-04-29 23:11:00,76.5,70.9,29.99,SE,126,0.0,0.0,83,0.00,CLR,OVC,0.04,WeatherDisplay:10.37,2013-04-30 03:11:00,
2013-04-29 23:16:00,76.4,71.2,29.99,South,188,2.9,3.5,84,0.00,CLR,OVC,0.04,WeatherDisplay:10.37,2013-04-30 03:16:00,
2013-04-29 23:21:00,76.2,71.0,29.99,SW,226,2.3,4.6,84,0.00,CLR,OVC,0.04,WeatherDisplay:10.37,2013-04-30 03:21:00,
2013-04-29 23:26:00,76.1,70.9,29.99,SSW,205,0.5,2.3,84,0.00,CLR,OVC,0.04,WeatherDisplay:10.37,2013-04-30 03:26:00,
2013-04-29 23:31:00,76.1,70.9,29.99,South,191,0.7,1.1,84,0.00,CLR,OVC,0.04,WeatherDisplay:10.37,2013-04-30 03:31:00,
2013-04-29 23:36:00,76.2,71.0,30.00,SE,138,0.0,0.0,84,0.00,CLR,OVC,0.04,WeatherDisplay:10.37,2013-04-30 03:36:00,
2013-04-29 23:41:00,76.0,70.8,30.00,WSW,257,0.2,1.1,84,0.00,CLR,OVC,0.04,WeatherDisplay:10.37,2013-04-30 03:41:00,
2013-04-29 23:46:00,75.9,70.7,30.00,WSW,257,0.0,0.0,84,0.00,CLR,OVC,0.04,WeatherDisplay:10.37,2013-04-30 03:46:00,
2013-04-29 23:51:00,76.0,70.8,30.00,WSW,257,0.0,0.0,84,0.00,CLR,OVC,0.04,WeatherDisplay:10.37,2013-04-30 03:51:00,
2013-04-29 23:56:00,76.1,71.3,30.00,WSW,257,0.0,0.0,85,0.00,CLR,OVC,0.04,WeatherDisplay:10.37,2013-04-30 03:56:00,